Showing default

CARTOSAT 2F, 43111

Orbit data source: Space-Track

CARTOSAT 2F, 43111 is a payload satellite owned by ISRO (IN) in SSO that was launched on Fri, 12 Jan 2018 UTC via a PSLV-XL launch vehicle from the Sirharikota (SRI). Payloads include a variety of satellites, spacecraft, and rockets equipped with specific instruments for various scientific and technological missions. These include communications satellites like Starlink; space stations such as the ISS; scientific satellites like the Hubble; Earth observation satellites from companies like Planet Labs, Umbra, and HawkEye 360; GPS; miniature CubeSats for education and research; and military/defense satellites.

Loading next visibility...
CARTOSAT 2F details
Identifier
43111, 2018-004A
Orbit
SSO
Last TLE update11 hours ago
Origin
Flag of INISRO (IN / IND)
ManufacturerISRO
MissionOperational Civil Imaging
Bus & MotorIRS-2, AOCS
Mass712 kg wet, 639 kg dry
Launch date (UTC)
2018-01-12 (7 years ago)
Launch vehicle
PSLV-XL
Launch site
Sirharikota (SRI)
Object type
Payload
Rocket body
Debris
Shape & HBRHex Cyl + 2 Pan, 8 m
Radar Cross Section9.780 m², Large (>1 m²)

Expand to show TLE details & history

TLE from 11 hours ago
0 CARTOSAT 2F
1 43111U 18004A   25024.14536746  .00010054  19687-7  47989-3 0  9990
2 43111  97.4767  86.0735 0001139 351.7762   8.3453 15.19112464386909
Epoch: 2025-01-24T03:29Z
Definitive object data (Epoch: 2025-01-24T03:29:19.748Z)
Latitude-0.00008°
Longitude-89.97151°
Altitude510.832 km
Speed7.609 km/s
True Right ascension05h 44m 17s
True Declination0° 00' 00"
Sunlit
Object was in full shadow at TLE epoch
Visualization TLE readout
Latitude65.16298°
Longitude-105.88208°
Altitude519.573 km
Speed7.61 km/s
Apparent Right ascension04h 19m 28s
Apparent Declination15° 33' 03"
Sunlit
Object is in full shadow
Visualization observer readout
Local Sidereal Time16:06:55
Azimuth356.335° N
Elevation-34.456°
Doppler factor1
Orbital elements
Apogee altitude506.276 km
Perigee altitude504.708 km
Semi-major axis6,883.629 km
Eccentricity0.0001139
Inclination97.4767°
RAAN86.0735°
Arg. of periapsis351.7762°
True anomaly8.34719°
Mean anomaly8.3453°
Eccentric anomaly8.34625°
Mean motion3.80029 °/min
BSTAR0.00047989
Orbital period94.73 mins
Loading maneuver chart data...

CARTOSAT 2F Visibility forecast

Observer location: undefined°, undefined

Span
Click to sort rows by Start time (UTC) header in descending order
Start Az.
Max El. time (UTC)
Max El. Az.
Max El.
End time (UTC)
End Az.
6 mins2025-01-24 16:41:41.366Z18.8° NNE2025-01-24 16:44:41.366Z67.504° E41.294°2025-01-24 16:47:41.366Z180.937° SSW
4 mins2025-01-25 03:21:41.366Z108.888° ESE2025-01-25 03:23:41.366Z59.095° ENE22.957°2025-01-25 03:25:41.366Z20.579° NNE
4 mins2025-01-25 04:55:41.366Z235.984° WSW2025-01-25 04:56:41.366Z255.378° W17.406°2025-01-25 04:59:41.366Z310.393° NW
|